Location: Gaspur (historical)
(33.7814°N, 118.2212°W)
Time: 07:47:29
(UTC+00:00)

Cosmos 1689 Rocket - Pass Details

Date: 29 October 2020
Orbit: 360 x 375 km, 97.5° (Epoch: 28 November)

Event Time Altitude Azimuth Distance (km) Brightness Sun altitude
Rises 13:15:10 0° 168° (SSE) 2,228 6.2 -12.0°
Reaches altitude 10° 13:17:07 10° 169° (S) 1,378 5.1 -11.6°
Maximum altitude 13:20:03 85° 259° (W) 379 1.9 -11.0°
Drops below altitude 10° 13:22:59 10° 347° (NNW) 1,378 4.6 -10.4°
Sets 13:24:56 0° 348° (NNW) 2,228 5.7 -10.0°
